[[{"header":{"parameterUnit":"m.s-1","parameterCategory":1,"la1":30.2991,"la2":30.254,"lo1":-89.0895,"lo2":-89.0444,"dx":0.0017,"dy":0.0017,"nx":28,"ny":28,"refTime":"2022-12-09T15:00:00:Z","depth":0,"parameterNumber":2,"parameterNumberName":"U-component_of_WINDS"},"data":[0,0,0,0,0,0,0,0,0,0,0,0,0,0,0,0,0,0,0,0,0,0,0,0,0,0,0,0,0,0,0,0,0,0,0,0,0,0,0,0,0,0,0,0,0,0,0,0,0,0,0,0,0,0,0,0,0,0,1.3928,1.3928,0,1.3982,1.3982,1.3983,1.3952,1.3951,1.3949,1.3948,1.4004,1.4007,1.4009,0,0,0,0,0,0,0,0,0,0,0,0,0,1.38,1.3802,1.3928,1.3928,1.3929,1.3982,1.3982,1.3983,1.3953,1.3951,1.3949,1.3947,1.4003,1.4006,1.401,0,0,0,0,0,0,0,0,0,0,0,0,0,1.3855,1.3803,1.3928,1.392,1.392,1.3982,1.3982,1.3983,1.3953,1.3951,1.3948,1.3946,1.4002,1.4006,1.401,1.4082,0,0,1.4023,1.4025,0,0,0,0,0,0,0,0,1.3852,1.386,1.3921,1.3921,1.3921,1.3958,1.3958,1.4017,1.3953,1.394,1.3948,1.3945,1.399,1.3996,1.4011,1.4085,1.4087,1.4024,1.4027,1.4028,1.403,0,0,0,0,0,0,0,1.3848,1.3857,1.3949,1.3922,1.3922,1.3915,1.392,1.3969,1.3978,1.3941,1.3939,1.3946,1.399,1.4007,1.4012,1.4088,1.4024,1.4028,1.403,1.4032,1.4227,1.4229,0,0,0,0,0,0,1.3845,1.3854,1.3947,1.3951,1.388,1.3919,1.3925,1.3948,1.3977,1.3979,1.3948,1.3944,1.4,1.4007,1.4014,1.4102,1.4028,1.4032,1.4035,1.4224,1.4227,1.423,0,0,0,0,0,0,1.3842,1.3853,1.3945,1.3902,1.3913,1.3923,1.395,1.3951,1.3967,1.3982,1.3983,1.3963,1.3999,1.4007,1.4066,1.4103,1.4034,1.4038,1.4221,1.4225,1.4229,1.4277,0,0,0,0,0,0,1.3838,1.3852,1.3879,1.3903,1.3916,1.3996,1.3952,1.3953,1.3975,1.397,1.3996,1.3999,1.3998,1.406,1.407,1.4108,1.4042,1.4218,1.4223,1.4228,1.4273,1.4282,1.4291,0,0,0,0,0,1.3834,1.3891,1.3881,1.3892,1.3949,1.3998,1.4006,1.4003,1.3978,1.4005,1.4015,1.3998,1.4097,1.4066,1.4078,1.4117,1.4216,1.4222,1.4227,1.4268,1.4281,1.4291,0,0,0,0,0,0,1.3871,1.3893,1.3883,1.3949,1.3972,1.3993,1.4028,1.4016,1.4047,1.4042,1.4038,1.4044,1.4105,1.4117,1.4081,1.419,1.4153,1.4161,1.418,1.4191,1.42,1.4197,1.4045,0,0,0,0,0,1.3887,1.3924,1.3942,1.3999,1.4011,1.4018,1.4039,1.4035,1.4059,1.4069,1.4082,1.4107,1.4144,1.4168,1.4202,1.4274,1.428,1.4307,1.4316,1.4323,1.4331,1.4372,1.4385,1.4249,1.4249,1.4249,0,0,1.392,1.3937,1.3961,1.4007,1.4024,1.4064,1.4026,1.4069,1.4099,1.4075,1.4132,1.4143,1.417,1.4236,1.4265,1.4247,1.437,1.4331,1.4337,1.434,1.4379,1.4392,1.4403,1.4253,1.4252,1.4252,0,0,1.4001,1.4017,1.4067,1.4086,1.4113,1.4117,1.4129,1.4153,1.4159,1.4216,1.4199,1.4235,1.4298,1.4319,1.4337,1.4428,1.4414,1.4439,1.4488,1.4527,1.4538,1.4548,1.4582,1.4594,1.4447,1.4447,1.4447,0,1.4039,1.4098,1.4094,1.4139,1.4161,1.4141,1.4192,1.421,1.4248,1.4263,1.4242,1.4322,1.4339,1.441,1.4433,1.4448,1.4462,1.4437,1.4537,1.4546,1.4555,1.4588,1.46,1.445,1.4449,1.4449,1.4449,0,1.4144,1.4186,1.4223,1.426,1.4285,1.4333,1.4337,1.4363,1.4358,1.4364,1.4423,1.4443,1.4482,1.4498,1.4493,1.457,1.4558,1.4537,1.45,1.4571,1.4602,1.4614,1.4454,1.4453,1.4452,1.4451,0,0,1.425,1.4285,1.4299,1.4317,1.4346,1.4378,1.4426,1.4464,1.4488,1.4514,1.4555,1.461,1.4591,1.4612,1.4609,1.4644,1.4717,1.4619,1.462,1.4638,1.4805,1.4822,1.4836,1.4707,1.471,1.4711,1.4803,0,1.4335,1.4418,1.4416,1.4494,1.4533,1.4516,1.4557,1.4581,1.4589,1.4623,1.4632,1.4672,1.4643,1.4656,1.469,1.4701,1.4751,1.4694,1.4747,1.4749,1.4742,1.4852,1.4869,1.4954,1.4815,1.4817,1.4818,0,1.4444,1.4475,1.4557,1.4582,1.4599,1.4636,1.4672,1.4705,1.4732,1.4735,1.476,1.4752,1.4801,1.4762,1.4831,1.4793,1.4814,1.4823,1.4827,1.4832,1.4789,1.4862,1.4981,1.4995,1.4837,1.4835,1.4834,0,1.4515,1.4578,1.4635,1.465,1.4681,1.4708,1.4722,1.4746,1.477,1.4801,1.4817,1.4854,1.4874,1.4903,1.4906,1.4877,1.4976,1.4937,1.4982,1.4982,1.5005,1.5003,1.5131,1.5016,1.5016,1.5016,1.5015,0,1.4611,1.4662,1.4668,1.4703,1.4761,1.4759,1.4816,1.4827,1.4849,1.4887,1.4874,1.491,1.491,1.4948,1.495,1.5008,1.5017,1.5022,1.5022,1.5024,1.5024,1.5039,1.5034,1.5019,1.5018,1.5018,1.5017,0,1.47,1.4706,1.4768,1.4792,1.4799,1.4841,1.4862,1.4896,1.4903,1.4952,1.4963,1.4975,1.5018,1.5023,1.5073,1.5075,1.5146,1.5139,1.5137,1.5137,1.5182,1.5178,1.5325,1.5345,1.5216,1.5217,1.5218,0,1.4761,1.4801,1.4829,1.4854,1.487,1.4909,1.4934,1.4934,1.496,1.4994,1.5025,1.5067,1.5101,1.5171,1.5184,1.5223,1.5218,1.5267,1.5224,1.5225,1.5221,1.5219,1.5224,1.5276,1.5277,1.5278,1.5279,0,1.487,1.4871,1.4907,1.4945,1.4974,1.5004,1.5031,1.5052,1.5056,1.5086,1.513,1.5157,1.5209,1.5251,1.529,1.5305,1.5294,1.5292,1.5305,1.5308,1.5306,1.531,1.5161,1.5289,1.5288,1.5287,1.5287,1.5286,1.4948,1.4983,1.5009,1.505,1.5071,1.5097,1.5132,1.5143,1.518,1.5223,1.522,1.527,1.5297,1.5348,1.5366,1.5405,1.5389,1.5407,1.5412,1.5417,1.5422,1.5299,1.5412,1.5411,1.5411,1.5411,1.5411,0,1.5057,1.5074,1.5111,1.5151,1.5183,1.5169,1.5199,1.5228,1.5271,1.5297,1.5331,1.5383,1.5425,1.5442,1.5483,1.5511,1.5507,1.5522,1.5521,1.5525,1.5433,1.5419,1.5525,1.5525,1.5525,1.5525,1.5525,1.5525,1.5118,1.5177,1.5182,1.5251,1.5267,1.5315,1.5334,1.5359,1.538,1.5439,1.5473,1.5484,1.5507,1.555,1.5588,1.5592,1.5608,1.5626,1.5628,1.5543,1.5531,1.552,1.5507,1.563,1.563,1.5717,1.5718,1.5718]},{"header":{"parameterUnit":"m.s-1","parameterCategory":1,"la1":30.2991,"la2":30.254,"lo1":-89.0895,"lo2":-89.0444,"dx":0.0017,"dy":0.0017,"nx":28,"ny":28,"refTime":"2022-12-09T15:00:00:Z","depth":0,"parameterNumber":3,"parameterNumberName":"V-component_of_WINDS"},"data":[0,0,0,0,0,0,0,0,0,0,0,0,0,0,0,0,0,0,0,0,0,0,0,0,0,0,0,0,0,0,0,0,0,0,0,0,0,0,0,0,0,0,0,0,0,0,0,0,0,0,0,0,0,0,0,0,0,0,-0.3831,-0.3829,0,-0.3662,-0.366,-0.3658,-0.3627,-0.3629,-0.363,-0.3631,-0.3453,-0.3447,-0.3441,0,0,0,0,0,0,0,0,0,0,0,0,0,-0.4122,-0.4117,-0.3831,-0.3829,-0.3827,-0.3663,-0.366,-0.3658,-0.3627,-0.3629,-0.3631,-0.3632,-0.3455,-0.3447,-0.344,0,0,0,0,0,0,0,0,0,0,0,0,0,-0.3979,-0.4115,-0.3831,-0.3792,-0.3787,-0.3663,-0.366,-0.3657,-0.3627,-0.3629,-0.3631,-0.3633,-0.3457,-0.3448,-0.3439,-0.3341,0,0,-0.3411,-0.3407,0,0,0,0,0,0,0,0,-0.3987,-0.3968,-0.38,-0.3794,-0.3788,-0.3668,-0.3697,-0.3551,-0.3626,-0.3687,-0.3632,-0.3634,-0.3522,-0.3508,-0.3471,-0.3333,-0.3325,-0.3411,-0.3405,-0.3401,-0.3399,0,0,0,0,0,0,0,-0.3997,-0.3975,-0.3764,-0.3797,-0.379,-0.3781,-0.3763,-0.3669,-0.3595,-0.3682,-0.3679,-0.366,-0.3519,-0.348,-0.3467,-0.3323,-0.3411,-0.3403,-0.3397,-0.3394,-0.3097,-0.3095,0,0,0,0,0,0,-0.4014,-0.3983,-0.3769,-0.3759,-0.3895,-0.3774,-0.3754,-0.3704,-0.3596,-0.3581,-0.3659,-0.3659,-0.3495,-0.3478,-0.3461,-0.3339,-0.3401,-0.3393,-0.3388,-0.3099,-0.3097,-0.3094,0,0,0,0,0,0,-0.4021,-0.3996,-0.3776,-0.387,-0.3842,-0.3767,-0.3712,-0.37,-0.3661,-0.3578,-0.3564,-0.3633,-0.3496,-0.3473,-0.3372,-0.3333,-0.3389,-0.338,-0.3102,-0.3099,-0.3095,-0.3096,0,0,0,0,0,0,-0.4029,-0.3998,-0.3961,-0.387,-0.3837,-0.3691,-0.3709,-0.3695,-0.3646,-0.3646,-0.355,-0.3536,-0.3496,-0.3386,-0.3363,-0.3321,-0.3373,-0.3105,-0.3101,-0.3096,-0.3099,-0.3093,-0.3088,0,0,0,0,0,-0.404,-0.3966,-0.3959,-0.3933,-0.3789,-0.3689,-0.367,-0.3627,-0.3643,-0.3604,-0.3552,-0.3539,-0.3342,-0.3376,-0.335,-0.3305,-0.3108,-0.3102,-0.3097,-0.3102,-0.3094,-0.3088,0,0,0,0,0,0,-0.4051,-0.3953,-0.3944,-0.384,-0.3774,-0.3684,-0.3634,-0.362,-0.3546,-0.3548,-0.3496,-0.3475,-0.3376,-0.333,-0.337,-0.3205,-0.3225,-0.3215,-0.3238,-0.323,-0.3225,-0.3237,-0.3366,0,0,0,0,0,-0.4042,-0.3971,-0.3889,-0.3804,-0.3772,-0.3709,-0.3664,-0.3637,-0.3565,-0.3536,-0.3476,-0.3405,-0.3327,-0.3276,-0.32,-0.3094,-0.3072,-0.305,-0.3044,-0.304,-0.303,-0.2971,-0.2961,-0.3076,-0.3076,-0.3076,0,0,-0.4021,-0.3959,-0.3917,-0.3805,-0.375,-0.3676,-0.3685,-0.3606,-0.355,-0.3523,-0.3424,-0.3378,-0.3296,-0.3192,-0.3143,-0.3151,-0.2995,-0.3033,-0.303,-0.3023,-0.2965,-0.2954,-0.2944,-0.3072,-0.3073,-0.3073,0,0,-0.3946,-0.3892,-0.3816,-0.3762,-0.3681,-0.364,-0.3622,-0.3536,-0.3505,-0.3406,-0.3384,-0.3317,-0.3183,-0.3126,-0.308,-0.2987,-0.2972,-0.2963,-0.2932,-0.2875,-0.2866,-0.2858,-0.2824,-0.2813,-0.2954,-0.2954,-0.2954,0,-0.3929,-0.3819,-0.3778,-0.3701,-0.3652,-0.3628,-0.355,-0.3499,-0.3396,-0.3362,-0.3374,-0.3207,-0.315,-0.3033,-0.3011,-0.2974,-0.2951,-0.2972,-0.2871,-0.2862,-0.2854,-0.2821,-0.2809,-0.2954,-0.2954,-0.2954,-0.2954,0,-0.3803,-0.3727,-0.3675,-0.3579,-0.3525,-0.3448,-0.3394,-0.3344,-0.3323,-0.3281,-0.3181,-0.3112,-0.3022,-0.2993,-0.297,-0.2873,-0.288,-0.2882,-0.2901,-0.2843,-0.2811,-0.2798,-0.2953,-0.2953,-0.2953,-0.2953,0,0,-0.3726,-0.3612,-0.3593,-0.355,-0.346,-0.34,-0.3322,-0.3237,-0.3195,-0.3125,-0.3058,-0.2948,-0.295,-0.2897,-0.2868,-0.2818,-0.2749,-0.2826,-0.2823,-0.2814,-0.2638,-0.2636,-0.2623,-0.2741,-0.2738,-0.2736,-0.2645,0,-0.3639,-0.3501,-0.3464,-0.3346,-0.3275,-0.3253,-0.3185,-0.3122,-0.3082,-0.3015,-0.297,-0.2892,-0.2901,-0.2869,-0.2819,-0.2768,-0.2713,-0.2775,-0.2676,-0.2673,-0.2696,-0.2606,-0.2603,-0.252,-0.2632,-0.263,-0.2629,0,-0.3518,-0.3449,-0.3326,-0.3247,-0.3216,-0.3156,-0.3075,-0.3012,-0.2941,-0.2915,-0.2858,-0.2835,-0.2752,-0.2778,-0.2663,-0.2706,-0.2664,-0.2633,-0.2629,-0.2616,-0.2646,-0.259,-0.2493,-0.248,-0.2609,-0.261,-0.2612,0,-0.3474,-0.3351,-0.3261,-0.3225,-0.3131,-0.3089,-0.3048,-0.2979,-0.293,-0.286,-0.2828,-0.2749,-0.2704,-0.2643,-0.2598,-0.2621,-0.2487,-0.2509,-0.2463,-0.2464,-0.2433,-0.2435,-0.2327,-0.2409,-0.2409,-0.2409,-0.241,0,-0.3379,-0.3304,-0.324,-0.3185,-0.31,-0.3058,-0.2976,-0.2933,-0.2872,-0.2808,-0.2783,-0.2723,-0.2668,-0.2601,-0.2565,-0.2476,-0.2456,-0.2432,-0.2423,-0.2433,-0.2436,-0.2403,-0.2407,-0.2406,-0.2407,-0.2407,-0.2408,0,-0.3314,-0.3269,-0.317,-0.309,-0.3069,-0.301,-0.2941,-0.2886,-0.2847,-0.2766,-0.2744,-0.2681,-0.26,-0.2551,-0.2447,-0.2424,-0.2325,-0.2319,-0.235,-0.2345,-0.2301,-0.2306,-0.2166,-0.2145,-0.2243,-0.2242,-0.2241,0,-0.3256,-0.3199,-0.3114,-0.3071,-0.303,-0.2959,-0.2911,-0.2868,-0.2818,-0.2734,-0.269,-0.2608,-0.254,-0.2412,-0.2356,-0.2278,-0.2269,-0.2226,-0.2256,-0.2269,-0.2267,-0.2271,-0.2265,-0.222,-0.2219,-0.2218,-0.2218,0,-0.3158,-0.3139,-0.3071,-0.2996,-0.294,-0.2878,-0.2816,-0.2782,-0.2728,-0.2674,-0.2593,-0.254,-0.2437,-0.2356,-0.2274,-0.223,-0.2214,-0.2209,-0.2194,-0.2202,-0.2222,-0.221,-0.2334,-0.2211,-0.2212,-0.2212,-0.2213,-0.2213,-0.3094,-0.3042,-0.2975,-0.2901,-0.2851,-0.2795,-0.274,-0.2695,-0.2627,-0.2541,-0.252,-0.2435,-0.2366,-0.2254,-0.2209,-0.2141,-0.2147,-0.2125,-0.2119,-0.2114,-0.2113,-0.2236,-0.2126,-0.2126,-0.2126,-0.2126,-0.2126,0,-0.2993,-0.2951,-0.2883,-0.2799,-0.2741,-0.2735,-0.2667,-0.2618,-0.2544,-0.2483,-0.2418,-0.2325,-0.2248,-0.2188,-0.2108,-0.2065,-0.2056,-0.2045,-0.2047,-0.2037,-0.2112,-0.2133,-0.2054,-0.2054,-0.2054,-0.2054,-0.2054,-0.2054,-0.2934,-0.2847,-0.282,-0.2708,-0.2665,-0.2583,-0.2545,-0.2493,-0.2444,-0.2342,-0.2278,-0.2241,-0.218,-0.2096,-0.2024,-0.2009,-0.198,-0.197,-0.1953,-0.2024,-0.2032,-0.2039,-0.2058,-0.1965,-0.1965,-0.1883,-0.1883,-0.1882]}]]